Theta_e
283 284 284 285 284 283 282 282 281 280 282 280 278 279 281 281 276 275 280 281 279 280 283 285 285 285 286 286 286 285 284 283 282 280 280 280 279 279 279 279 279 279 278 279 279 279 279 280 279 279 280 279 280 280 280 280 280 280 280 279 278 277 277 278 278 278 278 278 278 279 279 279 279 279 279 278 279 279 280 280 281 280 279 279 279 279 279
279 281 282 283 281 281 281 281 281 282 281 281 280 280 281 280 279 280 280 280 280 282 283 285 285 285 284 283 282 282 281 281 281 280 280 279 280 279 279 278 278 278 279 279 279 279 279 279 279 279 279 279 279 280 280 280 280 280 281 279 278 277 277 278 278 278 278 278 278 278 278 278 278 278 278 278 278 278 279 279 279 279 279 279 278 278 278
274 279 280 280 279 280 278 279 280 281 281 281 280 281 281 280 279 280 280 279 279 284 286 284 283 283 283 281 281 281 281 281 280 280 279 279 279 280 280 279 278 278 278 279 279 279 279 279 279 280 280 280 280 279 279 279 279 279 280 279 278 277 277 278 278 278 278 278 278 278 278 278 278 278 278 278 277 277 278 278 278 278 278 278 277 277 277
274 277 275 276 276 278 278 278 279 279 278 277 279 278 280 279 277 279 278 277 277 281 281 282 281 281 280 279 280 279 280 278 278 278 277 277 277 278 278 279 279 278 278 278 278 278 279 279 279 279 279 280 279 279 279 279 279 279 279 278 277 277 277 278 278 278 278 278 278 278 278 277 278 278 278 277 277 277 277 277 277 278 277 277 277 277 277
274 278 278 276 277 276 274 275 278 280 280 281 281 282 282 281 281 277 275 275 280 279 282 279 280 277 277 277 277 276 276 277 277 277 276 277 277 278 278 279 279 279 278 278 278 279 278 279 280 280 279 279 279 279 279 280 278 278 277 277 278 278 278 278 278 278 278 277 277 277 277 277 277 278 277 277 276 276 276 276 277 277 277 277 276 276 276
274 277 276 277 273 268 270 281 284 282 279 280 278 278 279 281 282 278 280 277 278 278 279 278 277 275 276 276 276 278 277 276 277 277 277 277 278 278 278 278 278 279 279 278 278 278 279 279 278 279 280 279 279 279 278 277 277 277 277 278 278 278 278 278 278 278 278 277 277 277 277 277 277 277 276 276 276 276 275 275 275 276 276 276 276 275 275
273 277 275 271 266 268 279 281 283 282 281 280 278 278 279 279 279 279 278 277 278 277 277 276 276 276 276 276 275 275 276 277 277 277 277 278 278 278 278 278 278 278 279 279 278 278 279 279 278 279 278 278 278 277 277 277 277 276 277 277 277 277 277 277 277 277 277 277 277 277 277 277 276 276 276 276 275 275 275 274 274 274 274 274 274 274 274
276 274 272 266 266 276 276 278 279 280 278 277 277 275 277 278 279 278 277 278 280 277 277 276 276 276 275 275 276 277 277 278 278 277 277 278 278 278 278 278 278 278 277 277 277 277 278 278 278 277 277 277 276 276 276 275 275 274 275 275 275 276 276 276 276 276 276 276 276 275 275 275 275 275 275 275 275 275 274 274 274 274 274 274 273 273 273
267 269 269 269 274 273 274 274 277 276 275 274 273 267 273 278 276 278 278 280 277 276 275 275 276 276 276 275 276 277 278 279 278 278 278 278 278 278 278 278 278 277 277 276 277 277 277 277 277 276 276 276 275 275 275 274 274 274 274 274 274 274 274 275 275 275 275 274 273 274 274 274 273 273 273 273 273 274 273 273 272 272 272 272 273 272 272
275 267 266 267 266 264 269 274 276 279 279 278 277 272 268 275 275 275 276 274 271 271 273 275 275 277 274 272 273 276 277 279 280 280 280 279 278 278 278 277 277 276 277 276 276 277 275 275 275 275 275 274 274 274 273 273 272 272 272 271 272 272 272 273 273 272 272 272 272 272 272 271 271 271 271 272 272 272 271 271 271 271 271 271 271 271 271
272 268 266 265 264 266 270 270 274 276 276 277 275 270 267 272 270 272 274 271 271 272 273 274 276 273 268 270 273 276 277 278 277 277 277 277 278 278 277 276 276 276 276 276 276 275 274 274 274 273 273 272 272 271 271 271 270 269 269 270 270 270 270 271 271 270 270 270 270 270 269 269 269 268 268 268 269 270 269 270 269 270 270 270 270 270 270
273 270 267 264 266 262 270 270 272 275 278 279 273 264 264 273 274 274 274 273 272 271 273 274 273 271 266 270 274 277 277 278 278 278 277 277 277 276 276 276 276 276 276 275 274 273 273 272 272 272 271 270 269 269 269 269 268 268 268 269 269 269 269 268 268 267 268 268 268 267 265 265 265 265 266 266 267 267 267 268 267 268 268 268 268 268 269
271 273 269 271 270 277 273 275 277 277 279 274 264 262 268 274 275 276 275 273 274 274 273 274 270 274 276 276 276 276 276 277 276 277 278 277 276 276 276 276 279 274 274 274 273 272 272 271 270 270 269 267 267 267 267 267 266 267 268 268 267 267 266 265 265 265 265 265 264 263 263 263 264 264 264 264 264 264 264 265 265 265 266 266 266 266 267
267 267 267 267 270 274 277 277 278 278 273 263 264 272 276 277 277 277 275 274 275 275 275 275 275 276 276 276 276 276 276 276 276 277 276 276 276 276 276 277 275 273 273 272 271 270 270 269 269 268 267 265 265 265 265 264 265 266 266 265 265 264 263 263 262 262 262 262 262 262 262 262 261 261 262 262 262 262 263 262 262 262 263 263 264 264 265
268 268 266 266 262 272 274 273 275 277 268 269 274 274 276 278 278 276 275 276 276 276 275 275 276 275 275 275 275 275 276 276 276 276 275 275 274 274 273 272 273 272 270 269 269 268 268 267 267 267 265 263 264 264 263 264 265 264 264 264 263 262 262 261 261 261 261 260 260 261 260 261 260 260 260 260 261 261 261 261 261 261 261 262 262 262 263
262 265 264 265 272 276 277 276 269 272 276 278 278 276 275 278 277 276 277 277 277 277 276 275 275 275 275 274 275 275 275 276 276 275 275 274 274 273 273 271 271 268 268 267 267 267 266 265 265 265 263 262 262 262 262 264 264 263 262 262 261 261 260 260 260 260 260 260 260 260 260 260 259 259 259 259 260 260 260 260 260 260 261 261 261 261 261
268 264 268 272 276 276 278 278 278 278 279 279 278 278 278 277 277 277 277 276 276 276 276 275 275 275 275 275 275 275 276 276 275 275 274 273 273 272 271 270 268 266 266 265 265 264 265 264 263 262 261 261 261 260 262 262 262 261 261 260 260 259 259 259 259 259 259 259 259 259 259 259 258 259 259 259 259 259 260 260 260 259 260 260 260 260 261
276 277 277 277 277 277 277 280 280 279 279 279 278 277 277 277 278 278 278 276 276 276 276 275 274 275 275 275 275 275 275 274 275 274 273 272 271 269 268 267 266 264 264 262 262 262 262 262 262 260 260 259 259 260 262 262 261 261 260 259 259 258 258 258 258 259 258 258 258 259 259 259 259 259 259 259 259 259 259 259 259 259 259 260 260 260 260
271 267 276 274 276 277 277 278 279 279 280 280 279 278 279 278 278 277 277 277 276 276 276 276 275 275 275 275 275 275 274 274 273 272 271 270 268 267 265 266 264 263 261 262 261 261 260 261 260 260 259 260 260 261 260 261 261 260 259 258 258 258 258 258 258 258 258 258 258 258 259 259 259 259 259 259 259 259 259 258 258 259 259 259 259 259 259
272 271 275 276 277 277 278 278 277 277 278 279 279 280 279 279 279 278 278 277 276 276 275 275 275 275 275 275 275 274 273 272 271 270 269 267 267 266 265 264 262 261 260 260 260 259 259 260 260 260 259 259 260 260 260 260 259 259 258 258 258 257 257 257 258 258 257 259 258 258 258 258 258 258 259 259 258 258 258 258 258 258 258 258 258 259 258
274 275 276 277 277 277 277 278 277 278 279 279 279 279 278 277 277 277 276 277 276 276 276 275 275 274 274 274 272 271 271 270 270 268 267 266 265 264 264 263 261 260 259 258 258 258 258 259 259 259 259 259 259 259 260 259 259 258 258 258 258 257 257 257 257 258 258 257 257 257 257 258 258 258 258 258 258 259 260 260 260 259 259 259 260 260 260
270 270 274 275 270 271 276 277 278 279 280 280 279 278 278 277 277 276 275 275 275 275 275 274 274 272 272 271 271 269 269 269 268 267 265 264 263 263 263 261 260 259 259 258 257 257 258 259 258 258 258 259 259 260 259 259 258 258 258 257 257 257 257 257 257 257 257 257 257 257 257 257 257 258 261 266 264 262 261 265 269 270 269 264 265 265 264
271 276 277 278 278 277 278 278 279 278 278 277 277 276 276 277 277 276 276 274 272 272 272 272 272 270 271 269 268 267 267 267 266 265 264 263 262 262 261 260 259 258 258 257 257 257 258 258 258 258 258 258 258 259 259 259 259 258 257 257 257 257 257 257 257 257 257 257 257 257 257 257 257 257 257 259 265 267 267 267 268 269 270 271 271 271 268
278 279 278 277 277 276 278 278 278 278 278 278 278 278 278 278 277 276 276 275 274 272 271 269 269 270 268 267 266 265 265 265 264 263 262 262 261 261 260 259 259 257 257 256 256 257 258 258 257 257 257 258 258 258 259 259 259 258 258 257 257 257 257 257 257 257 257 257 257 257 257 257 257 257 257 256 258 263 267 267 268 269 269 270 270 270 271
277 280 280 279 279 280 280 280 280 280 279 279 278 278 277 275 273 274 273 272 271 272 270 268 267 267 266 265 265 264 264 263 262 262 262 261 262 260 260 258 257 256 257 257 257 257 257 256 256 257 257 257 258 258 259 259 258 258 258 257 257 256 256 257 257 257 257 257 257 257 256 257 257 257 257 257 256 257 260 265 267 268 268 269 270 270 270
281 281 281 281 280 280 281 280 279 277 274 276 275 273 274 274 273 271 270 269 268 268 268 267 266 265 265 264 263 262 261 260 261 261 259 258 257 258 257 256 257 257 257 256 256 256 256 256 256 256 256 257 258 259 259 259 258 258 257 257 257 257 256 257 257 257 257 257 257 257 257 257 257 257 257 258 257 257 257 258 259 262 266 267 268 269 269
281 281 280 279 278 279 280 279 279 279 275 275 275 273 270 269 269 267 266 266 265 265 265 265 264 262 261 260 260 261 259 260 259 259 258 257 257 257 257 257 256 256 256 256 256 256 257 257 256 256 257 258 259 259 258 258 258 258 257 257 257 257 258 258 257 257 257 257 257 257 258 257 258 258 258 258 258 258 257 257 257 257 258 259 264 268 265
281 281 280 277 277 278 279 280 277 273 272 272 271 269 267 266 264 263 262 264 263 261 262 260 260 259 259 260 259 260 259 257 256 257 257 256 256 256 256 256 256 255 255 255 255 256 256 256 256 256 257 258 259 258 258 258 257 257 257 257 257 257 257 257 257 257 257 257 258 258 258 258 258 258 259 259 258 258 259 259 258 258 259 260 260 265 268
280 280 281 280 281 277 272 269 269 269 267 267 267 265 264 263 261 262 262 263 264 262 261 259 259 259 260 260 259 257 256 256 256 256 256 256 256 256 255 255 254 254 254 255 255 255 255 255 256 256 257 258 258 258 258 257 257 257 257 256 257 256 257 257 257 257 257 258 258 258 260 260 259 259 259 259 259 259 259 259 259 259 259 260 260 260 264
280 280 279 274 269 269 270 268 268 267 267 265 264 262 263 263 262 262 263 264 263 261 262 260 259 258 259 257 257 256 255 255 256 255 256 256 254 254 254 254 253 253 253 254 254 254 255 256 256 256 257 258 258 258 257 257 257 256 256 257 256 256 256 257 257 258 258 258 259 260 260 259 260 260 259 259 260 260 259 259 260 260 259 260 261 259 259
273 266 266 267 268 268 269 269 269 267 266 264 264 262 262 262 263 263 263 263 262 262 261 260 258 257 257 256 255 255 255 255 254 254 254 253 254 253 253 253 252 252 253 255 255 255 255 255 255 256 257 257 258 257 257 256 256 256 256 256 256 257 258 259 260 259 259 259 259 259 259 259 259 259 259 260 260 260 260 260 260 260 260 260 260 260 260
268 264 264 265 265 265 265 265 266 267 265 263 262 262 262 262 262 263 262 261 260 259 257 255 255 255 254 253 253 254 254 253 253 253 253 253 253 253 253 253 253 255 254 255 255 255 255 255 255 256 257 257 257 257 256 256 256 256 256 256 256 256 257 258 258 258 259 259 259 259 259 259 259 260 260 260 260 260 261 261 260 261 261 260 261 261 262
266 266 265 262 261 262 263 264 266 266 264 263 264 262 262 261 260 260 260 259 257 256 256 255 254 254 253 253 253 253 253 252 252 252 252 252 252 252 252 253 254 254 255 255 255 255 255 255 256 257 258 257 257 256 256 256 256 256 256 255 255 256 257 258 258 258 258 258 258 258 259 259 259 260 260 260 261 261 261 261 261 261 261 261 262 262 263
273 274 275 270 270 270 269 267 265 265 262 262 260 259 258 258 257 257 256 255 255 254 254 254 253 253 253 253 253 253 253 251 251 251 252 252 252 252 253 254 254 253 254 255 255 255 256 256 256 257 257 257 256 256 256 256 256 255 255 255 255 256 256 256 257 257 257 257 258 259 259 259 259 259 260 260 261 261 261 261 261 261 262 262 262 263 265
262 259 258 257 257 257 260 264 265 264 263 261 257 256 256 255 254 254 254 253 253 253 254 254 253 253 253 253 252 251 251 251 251 251 251 252 252 252 253 252 252 252 252 254 254 255 255 255 254 255 256 256 256 256 256 255 255 255 255 255 256 256 256 256 256 256 257 257 258 258 258 258 259 260 260 260 260 260 260 260 261 261 261 261 261 262 262
257 256 254 253 253 253 253 253 256 260 261 259 257 255 253 252 252 252 253 253 255 255 255 254 254 252 251 251 251 250 250 250 250 251 251 251 252 253 253 251 251 251 251 252 254 254 254 252 257 257 257 257 256 255 255 255 255 255 256 256 255 255 256 256 256 256 257 257 257 258 258 259 259 259 259 259 259 259 259 259 260 260 260 260 260 260 260
255 255 253 252 252 252 251 252 252 253 254 253 254 253 252 252 252 251 252 252 253 254 253 252 251 250 251 252 252 251 251 251 252 252 252 252 252 250 251 250 251 251 252 251 253 252 252 254 257 257 256 255 254 254 255 257 256 256 256 255 254 254 255 255 255 255 256 256 257 257 258 257 257 257 258 258 258 258 259 259 259 259 259 259 259 259 259
253 253 253 252 251 251 250 249 249 250 250 250 249 250 250 249 251 250 250 251 251 252 252 252 250 250 251 252 251 251 250 250 249 249 248 249 249 249 250 250 251 251 251 252 252 252 252 255 257 256 255 254 254 253 255 256 257 256 254 254 254 254 254 255 255 255 255 255 256 256 256 256 256 256 256 257 257 258 258 258 258 258 258 258 258 258 258
253 253 252 252 251 250 250 249 248 247 248 248 247 248 249 249 250 250 249 249 249 251 250 250 250 250 250 249 249 248 248 248 247 247 248 248 249 248 250 251 252 253 253 254 253 253 255 256 256 255 255 254 253 254 255 256 257 255 254 254 253 253 254 254 254 255 255 256 255 255 255 255 256 256 256 256 256 257 258 258 258 258 258 257 257 257 257
253 251 251 250 250 250 250 250 247 247 247 247 249 248 249 250 249 249 250 250 250 252 250 250 249 248 248 248 247 248 248 248 247 247 247 248 248 249 250 251 252 253 254 256 253 252 255 257 255 254 254 253 253 253 254 256 256 255 253 253 253 253 253 254 254 254 254 254 254 256 255 255 255 256 256 256 256 256 256 256 257 257 257 257 257 257 257
252 251 251 250 250 250 250 251 250 248 248 249 248 249 251 250 250 249 248 248 248 247 250 248 248 248 248 248 247 248 247 248 247 247 247 246 248 249 249 250 250 248 249 250 251 253 256 256 255 254 253 253 252 255 254 255 255 253 252 253 253 253 253 253 254 254 253 254 254 254 254 254 254 254 255 255 255 255 256 256 256 257 256 256 256 257 257
252 252 252 251 251 250 250 249 250 250 248 248 249 250 250 250 250 249 248 247 247 247 247 247 249 248 247 247 247 247 247 247 247 247 247 248 249 249 250 252 251 249 255 255 255 254 254 254 254 255 252 252 253 255 256 255 253 252 252 252 252 253 253 253 253 253 253 253 253 253 254 254 254 254 254 254 254 254 255 255 255 256 256 256 256 256 256
250 249 249 249 249 248 248 248 250 249 249 251 249 249 249 249 248 247 246 246 246 246 247 246 247 249 249 247 246 246 247 247 247 247 248 249 250 251 252 253 250 251 257 254 253 253 254 255 254 251 255 255 254 255 255 254 252 252 251 251 252 252 252 252 252 252 252 252 252 252 252 253 253 253 253 253 253 254 254 254 254 255 255 255 256 256 256
249 249 249 248 249 250 249 250 250 250 248 249 250 248 247 246 246 246 246 246 246 247 247 246 245 245 246 245 245 246 246 247 248 249 249 250 249 250 252 253 253 253 257 254 254 254 255 254 252 254 255 255 255 255 254 253 253 252 250 250 251 250 251 251 251 251 251 252 252 251 252 253 252 252 253 253 254 254 254 254 254 254 254 254 255 255 255
249 249 249 248 247 247 248 249 248 249 249 249 247 245 244 245 245 245 245 246 246 246 247 248 248 248 247 246 247 247 248 249 250 250 248 250 249 250 250 254 253 254 254 256 255 255 255 254 254 255 255 255 255 255 254 253 253 253 253 250 250 250 250 250 251 251 251 251 251 252 252 252 251 252 252 252 254 253 253 253 254 254 254 254 254 254 254
249 248 248 249 246 245 247 248 248 247 246 246 242 245 245 244 243 244 243 244 244 246 246 248 248 248 248 247 248 248 248 250 251 252 253 253 252 249 250 254 253 255 255 256 255 255 254 255 255 255 255 255 254 254 252 252 253 252 251 249 248 250 250 249 250 250 250 251 251 251 251 251 251 251 251 252 252 253 253 254 254 253 253 254 254 254 254
248 247 246 245 245 245 244 243 244 244 243 243 241 244 246 245 244 245 245 246 245 246 246 247 248 249 249 248 248 248 249 250 251 253 254 254 255 255 255 256 256 256 255 255 255 254 254 254 254 255 255 254 254 252 251 252 251 251 251 248 249 248 249 249 249 249 249 250 251 252 252 252 251 250 251 252 251 252 252 252 252 252 253 254 254 254 253
245 244 244 243 242 243 242 241 241 240 240 243 243 245 246 244 244 245 246 247 247 247 247 247 247 247 247 248 249 250 251 251 251 251 250 251 251 252 253 253 255 256 256 255 255 255 255 255 255 255 254 254 253 252 251 251 251 251 250 248 248 249 248 249 249 249 250 250 250 249 249 250 250 250 250 250 250 251 251 251 251 252 252 252 252 252 252
242 242 242 242 242 241 241 241 241 244 243 243 243 245 245 245 245 247 247 247 245 245 247 247 247 248 249 251 251 251 253 255 254 252 252 253 253 254 255 256 256 256 255 254 254 254 254 254 254 254 254 253 251 250 249 249 249 250 250 250 249 249 249 249 248 249 249 249 249 249 249 249 249 248 249 249 250 250 251 250 250 251 251 252 252 252 252
242 241 241 242 241 241 241 242 245 244 244 247 245 246 246 247 247 249 250 250 250 252 249 249 250 251 252 253 254 255 255 255 256 256 255 255 254 255 255 255 255 255 255 255 254 253 254 254 254 254 253 251 251 251 251 251 249 250 249 251 250 250 250 251 252 252 250 249 248 249 249 249 248 249 250 249 249 250 249 250 250 251 252 251 251 250 250
244 244 244 246 245 245 243 245 246 245 245 245 245 248 249 249 249 252 251 251 250 252 251 252 253 254 254 254 255 255 254 254 254 256 255 255 256 256 256 256 256 255 255 255 254 254 253 253 251 252 251 251 251 250 251 250 250 250 251 250 250 250 250 250 249 248 247 248 248 248 248 248 248 247 247 248 249 248 249 249 249 249 249 249 249 249 249
244 243 244 244 244 244 243 244 243 245 244 246 246 248 249 250 250 250 251 256 252 251 252 252 253 255 256 256 256 256 256 255 255 255 256 256 256 256 256 255 255 255 255 255 254 253 253 251 253 252 252 251 251 250 251 251 250 249 250 250 250 250 250 250 249 248 247 247 247 247 248 247 247 247 247 247 247 248 248 248 248 248 248 248 248 248 248
Wind_Speed
6 5 8 6 6 5 7 9 10 12 11 11 12 10 6 4 8 14 11 13 15 12 11 11 10 9 12 7 4 3 4 5 4 4 3 4 4 5 5 5 4 5 4 4 4 3 3 3 3 4 4 4 4 4 3 3 3 3 2 1 3 4 5 5 6 5 5 5 5 6 7 7 9 9 8 7 6 6 6 7 7 7 6 6 8 8 7
6 9 8 5 6 6 8 11 13 14 15 17 14 10 9 11 10 10 12 11 14 13 14 13 9 3 2 4 4 4 4 3 4 3 3 4 4 4 5 5 5 4 4 4 4 4 4 5 5 5 5 5 5 5 5 4 4 4 1 2 2 4 5 6 6 6 6 6 6 7 7 8 8 8 9 9 9 8 8 7 7 7 7 8 7 8 9
5 7 5 3 3 5 9 9 11 13 14 13 9 12 13 11 12 15 15 15 17 11 11 3 2 2 3 3 2 3 2 3 2 1 1 3 3 4 4 5 5 4 3 4 4 5 5 5 6 6 5 5 5 4 4 4 4 4 2 1 3 4 5 5 6 6 6 7 7 8 9 8 8 8 9 9 9 9 10 9 9 8 8 8 8 8 9
8 9 5 4 5 7 9 13 17 18 15 13 12 12 6 9 12 12 11 12 11 5 3 2 2 2 2 1 1 2 1 2 1 0 2 2 2 3 4 4 4 3 4 5 5 5 5 5 5 5 5 5 4 4 4 4 4 2 2 3 4 5 6 6 7 7 7 8 8 10 8 9 9 9 9 9 9 9 10 11 10 9 10 10 9 9 9
9 12 6 2 1 4 9 16 20 15 14 15 13 12 13 13 12 13 12 12 6 2 3 2 1 3 0 2 1 3 2 1 1 2 4 3 2 3 4 4 4 5 5 5 6 6 5 5 6 6 5 3 3 4 4 4 3 4 4 4 6 7 8 8 9 9 8 8 9 9 9 9 9 9 10 10 10 10 11 9 9 11 13 13 12 11 10
4 7 1 3 1 8 15 5 3 8 10 9 12 12 11 10 9 7 6 4 3 3 1 3 1 3 0 1 2 2 2 2 4 5 4 2 2 1 3 4 5 5 5 5 4 5 5 3 4 4 5 4 4 4 4 5 5 5 7 9 9 10 10 10 10 10 10 9 10 10 10 9 9 9 10 11 10 9 8 8 10 11 12 13 13 14 13
4 2 2 4 10 16 4 3 4 6 9 7 10 9 9 9 9 10 11 5 3 4 5 4 3 1 1 2 2 5 4 3 5 5 4 2 0 1 1 3 4 5 5 5 6 7 8 5 5 6 6 5 5 6 5 6 6 7 7 8 9 10 11 11 10 9 10 9 11 11 11 10 10 11 10 10 10 9 8 9 10 11 11 13 13 14 14
2 3 7 10 14 5 1 4 1 3 2 4 2 8 8 9 11 10 7 7 4 8 6 3 2 0 3 3 4 6 7 6 6 4 2 1 1 0 2 1 3 3 4 4 4 3 3 5 5 4 4 5 5 5 5 5 5 5 5 7 9 9 10 10 10 10 10 11 11 11 12 12 12 12 11 11 11 10 9 9 10 10 12 12 14 15 15
7 6 9 15 8 10 8 6 4 3 4 4 5 5 5 4 3 2 1 1 6 6 3 2 1 1 1 3 7 5 7 7 4 4 1 1 1 1 2 1 1 4 4 4 3 2 3 4 4 4 5 6 6 6 6 5 5 6 6 8 9 10 10 11 11 11 11 12 13 14 13 13 12 12 12 13 12 10 11 12 13 13 14 13 13 14 15
8 7 8 7 5 11 7 1 1 2 2 4 0 3 5 4 6 2 4 3 6 4 2 0 1 0 1 5 4 3 5 4 2 0 2 2 2 2 1 3 5 4 3 3 4 4 5 5 5 6 6 6 6 6 6 7 7 8 8 10 10 10 11 10 11 11 11 12 13 14 13 13 13 13 13 12 12 11 12 14 15 15 13 14 14 14 15
5 5 7 7 8 6 3 3 1 1 1 3 2 3 7 0 1 1 8 6 3 2 1 1 1 1 1 6 4 3 1 0 2 1 2 1 1 2 5 4 3 2 2 4 4 5 5 5 6 7 7 7 7 7 7 8 8 9 10 10 10 11 12 11 10 10 11 12 13 13 13 13 12 14 15 14 14 14 14 14 15 15 15 14 15 14 14
9 8 9 10 4 4 2 3 3 4 1 2 8 10 6 2 4 4 6 7 5 3 3 4 3 5 5 7 7 2 2 1 0 1 1 2 2 5 3 4 3 2 3 5 6 6 6 6 7 8 6 6 6 8 9 8 8 9 10 10 11 11 11 11 11 11 11 12 12 12 14 15 15 15 14 14 14 14 14 13 15 15 15 15 17 17 16
12 14 9 6 7 5 3 6 5 5 2 3 2 12 6 3 6 4 5 5 5 3 3 4 4 7 8 6 6 3 3 4 4 2 0 3 5 4 3 2 4 4 5 5 5 5 5 7 7 6 6 8 9 8 8 8 8 9 10 10 11 11 11 11 11 11 11 10 13 14 12 13 14 15 13 13 15 15 16 15 15 16 17 17 17 18 17
10 8 10 10 6 5 7 4 10 5 4 2 8 3 3 7 7 6 4 4 3 3 5 5 7 6 5 4 4 5 5 5 4 2 3 4 4 4 3 6 6 5 4 5 5 5 5 7 6 5 7 9 9 8 8 9 8 9 10 10 10 10 11 11 11 11 11 11 11 12 13 13 14 15 13 13 14 14 13 14 16 18 17 16 16 18 17
4 4 8 8 10 2 5 3 3 3 4 4 1 3 2 6 8 6 5 5 6 6 6 6 7 5 4 4 5 4 5 5 5 1 4 3 3 3 3 5 6 5 4 4 4 4 5 5 6 6 7 8 8 8 9 10 9 10 10 10 11 11 12 13 12 12 12 12 13 11 12 12 13 15 14 13 14 13 14 15 15 17 16 15 15 16 15
4 6 7 6 3 5 7 7 5 4 6 7 5 5 4 5 6 6 6 7 7 7 7 7 5 5 5 4 4 4 5 4 1 4 3 3 3 3 5 6 5 4 4 3 4 4 5 4 5 5 5 8 8 9 11 9 9 9 10 10 11 12 12 13 13 13 12 12 12 11 12 13 13 13 14 13 13 11 12 13 13 14 13 12 14 15 16
5 5 4 2 4 3 5 8 7 5 6 5 5 5 5 6 7 6 6 6 6 6 6 5 5 5 4 5 5 4 5 2 2 1 2 2 3 4 4 4 4 4 4 4 6 6 5 5 4 4 4 6 9 10 10 7 9 10 11 11 12 13 14 13 13 13 13 12 12 12 11 11 13 12 13 12 12 11 11 12 12 13 13 11 13 14 14
6 7 8 4 7 6 3 6 7 7 7 8 6 5 6 5 7 6 7 5 5 4 4 4 4 5 5 5 5 4 1 2 1 2 2 3 4 4 3 3 4 3 4 4 5 8 7 4 5 4 4 4 9 11 9 9 9 9 10 12 13 14 13 13 13 14 15 13 12 12 13 11 11 11 12 12 11 12 11 12 12 13 13 13 13 13 14
5 6 3 4 7 8 7 8 7 7 8 9 7 7 8 8 7 6 5 6 5 6 5 5 6 6 5 5 5 3 2 2 2 1 1 3 3 3 3 3 4 4 4 6 6 7 10 6 4 4 5 5 7 8 9 10 10 10 10 12 13 13 14 13 13 12 14 12 13 12 11 11 10 10 11 11 12 12 12 13 13 13 14 13 13 14 15
10 11 5 9 9 8 8 7 6 7 9 9 8 9 8 8 7 7 8 6 6 5 4 6 6 7 6 6 6 3 1 1 1 1 2 2 2 3 3 2 2 2 3 4 6 6 8 7 5 6 6 7 7 8 8 9 9 10 11 11 13 14 14 13 12 12 13 14 15 12 11 11 11 11 11 11 12 12 12 13 13 14 14 14 15 15 15
9 5 6 10 8 9 10 9 6 7 9 8 8 8 7 6 6 6 6 7 7 6 7 5 6 6 5 4 3 3 2 1 1 1 2 2 1 1 2 1 2 3 3 4 5 6 8 6 7 7 7 7 6 8 9 9 9 10 12 12 12 13 13 12 13 12 11 12 12 12 13 12 11 11 12 12 13 14 14 12 13 14 14 15 15 15 15
7 7 8 4 5 8 9 10 13 13 12 12 11 9 7 7 7 5 6 5 4 5 5 6 6 6 5 4 3 4 3 2 1 1 1 1 1 1 1 2 3 3 3 4 5 7 7 6 7 7 8 8 7 8 8 8 9 11 12 12 12 12 12 12 12 11 11 11 12 12 12 13 13 12 14 23 20 17 15 21 30 32 27 20 19 17 17
10 9 8 8 11 11 10 10 8 7 6 7 7 6 7 7 7 8 8 7 4 5 4 4 6 5 6 4 4 4 3 2 2 2 1 0 1 2 2 4 4 3 3 4 5 7 7 5 6 8 9 10 9 9 8 8 9 10 11 11 12 12 12 11 12 13 12 12 12 11 12 12 12 13 13 12 21 29 28 28 29 31 31 34 35 33 25
11 9 7 5 6 9 8 7 7 7 5 6 8 9 9 8 7 7 8 10 10 7 5 3 4 5 4 4 4 4 2 1 1 1 1 1 1 2 3 3 4 4 5 5 5 6 5 6 8 9 10 10 9 9 9 9 8 9 10 11 13 13 12 12 13 13 11 12 12 12 12 12 12 13 13 14 13 18 25 27 28 30 31 32 33 32 33
14 11 8 8 11 13 12 11 10 9 8 7 8 8 8 6 5 7 7 5 4 7 7 6 4 4 5 4 4 4 3 2 2 0 1 1 3 2 3 3 4 5 5 4 4 5 6 7 9 9 10 11 9 9 9 8 9 10 11 12 14 13 13 13 12 13 12 11 11 11 12 13 13 12 13 13 15 15 14 21 27 29 30 31 32 31 31
13 13 12 11 11 13 13 11 9 7 5 5 4 3 4 7 7 5 5 5 4 4 6 7 6 3 5 5 4 4 2 1 1 0 0 2 3 3 3 4 4 4 4 5 6 7 7 9 10 10 10 11 9 9 9 9 10 10 12 12 13 12 12 13 13 12 11 11 11 11 11 12 12 13 13 13 14 15 17 15 14 17 22 28 30 30 31
10 10 9 10 12 14 13 13 13 7 8 7 7 6 4 5 6 5 5 5 4 4 4 4 6 6 4 3 4 2 3 1 0 1 2 3 4 4 3 2 3 5 5 6 6 7 9 10 9 9 11 11 9 9 9 9 10 11 12 13 12 14 20 16 11 11 11 11 11 11 11 12 12 12 13 13 13 14 14 15 16 16 15 16 21 27 23
10 10 9 12 14 14 13 11 7 2 5 6 7 8 5 6 6 5 5 4 4 4 5 4 6 5 4 3 4 2 2 1 2 2 2 4 3 2 2 3 4 5 5 6 7 8 8 9 8 10 12 10 9 9 9 9 10 11 12 13 12 11 11 12 11 10 10 11 11 11 12 12 12 13 13 13 13 13 13 14 14 15 15 14 14 19 31
12 11 11 12 13 9 2 4 5 5 5 4 5 6 7 6 4 5 5 6 6 6 4 3 3 4 4 3 3 3 3 3 3 4 4 3 2 2 2 4 4 5 6 7 8 9 8 7 7 10 13 10 8 8 9 10 10 11 12 12 11 11 10 10 10 10 11 11 11 12 13 13 12 12 12 12 12 12 12 13 14 13 14 14 13 14 18
12 10 7 5 1 4 4 4 5 5 5 6 7 4 5 8 7 6 6 6 6 8 6 7 5 4 4 4 3 4 4 4 5 3 2 3 2 3 3 4 4 5 5 6 7 5 6 8 9 11 11 9 9 9 8 9 10 11 12 13 11 11 10 10 10 11 11 11 12 16 13 11 11 11 12 12 12 12 13 13 14 14 14 14 13 13 13
4 1 3 2 3 2 6 6 5 6 7 5 6 6 4 4 6 6 7 7 6 6 5 6 5 5 5 5 4 3 2 1 2 3 4 4 4 5 5 4 3 4 6 8 7 7 7 8 8 10 9 9 8 8 9 10 9 10 11 10 10 15 19 20 15 11 10 11 11 11 11 12 11 12 12 12 12 12 12 12 12 13 13 13 12 12 13
2 3 4 0 1 2 2 2 5 6 8 6 6 9 11 10 9 10 7 8 7 7 6 5 6 6 5 3 3 3 3 3 3 4 4 4 5 5 5 5 5 7 8 8 7 7 7 8 10 11 9 7 7 9 9 9 9 9 10 10 11 11 12 18 12 12 10 11 11 11 11 11 12 11 12 12 12 13 13 12 13 12 12 12 13 12 13
5 1 3 3 1 2 5 5 7 8 8 9 10 6 5 5 4 5 6 6 5 4 5 5 4 4 4 4 3 3 3 3 4 6 6 7 7 6 5 4 4 6 7 6 6 7 8 10 11 9 8 8 8 8 8 8 8 8 9 10 10 11 11 12 13 12 10 11 10 10 10 11 11 11 12 13 12 12 12 13 12 12 12 12 12 12 12
11 13 11 6 10 11 12 12 8 7 4 3 4 5 4 4 4 4 4 4 4 4 4 4 3 4 3 3 3 3 3 3 5 6 6 5 3 3 3 4 5 6 7 7 7 7 7 8 8 7 8 9 9 8 8 7 7 7 9 10 10 10 10 9 11 9 9 10 10 12 11 12 11 11 12 12 12 11 12 12 12 12 12 12 12 12 17
2 4 6 5 3 2 1 3 7 8 8 7 4 4 4 4 4 4 3 4 4 3 1 2 2 3 3 3 3 4 4 7 7 6 5 5 5 4 4 5 5 5 7 8 8 8 8 7 5 6 9 9 8 8 7 8 7 8 9 9 10 9 9 9 9 9 9 10 10 10 10 11 10 11 13 12 11 11 11 12 11 11 11 12 13 13 14
3 4 5 6 5 4 5 5 2 2 6 6 6 6 5 4 4 4 4 3 2 2 2 3 3 4 4 4 5 5 7 7 6 6 5 5 5 4 4 4 5 7 8 11 8 7 5 3 6 10 8 8 8 8 7 6 7 8 9 9 9 9 9 8 9 8 8 8 9 9 9 12 13 12 12 11 10 10 11 11 11 11 11 11 12 13 13
4 7 6 6 4 5 6 5 4 5 6 5 6 5 5 4 4 2 2 1 1 1 1 1 2 4 6 5 5 5 6 6 5 5 5 3 3 4 5 6 6 6 6 8 5 0 1 4 8 13 8 6 7 8 8 12 8 7 8 8 8 8 8 8 8 7 8 7 7 9 11 10 9 9 10 9 10 10 10 10 12 11 10 11 11 12 12
5 7 6 6 6 6 7 4 4 6 7 9 6 4 5 4 3 3 3 2 2 1 1 1 3 4 4 4 5 6 6 5 5 5 4 5 5 6 7 6 7 5 6 7 3 3 4 6 11 8 6 6 7 7 9 13 14 10 7 8 8 7 8 8 8 9 8 8 9 8 8 8 9 9 9 9 9 10 11 11 11 11 11 11 10 10 10
7 6 6 6 6 7 6 5 4 3 5 8 4 2 1 3 2 2 2 3 3 2 2 3 3 4 5 5 7 5 6 6 5 5 5 7 6 5 9 8 8 8 9 7 5 6 5 5 7 6 6 6 7 8 9 11 13 8 7 7 8 7 7 7 7 8 8 9 7 8 8 9 8 9 9 9 9 9 10 11 11 10 10 10 10 10 9
6 6 6 6 6 5 5 6 4 3 3 4 5 4 3 3 2 3 3 4 4 3 4 4 5 7 5 6 6 7 6 6 5 5 8 7 5 7 8 9 10 11 9 10 6 4 6 9 6 5 5 5 6 7 7 10 11 8 7 7 7 7 6 7 6 6 7 7 8 9 8 8 8 8 9 9 9 9 9 10 10 10 10 9 9 9 9
7 7 5 5 5 4 4 5 4 4 3 3 3 3 4 4 3 3 5 5 4 3 6 5 5 7 7 7 8 7 5 6 6 8 6 5 6 7 6 9 4 2 2 2 2 3 6 5 4 5 5 6 6 7 7 10 9 6 7 7 6 6 6 6 6 6 7 8 8 8 8 8 9 9 9 8 8 8 8 9 9 9 9 9 9 9 9
4 5 5 4 4 4 3 3 3 3 2 3 3 3 3 3 4 5 5 4 4 4 5 5 7 8 7 7 6 6 6 7 7 7 6 8 7 6 6 9 5 4 2 2 2 3 4 4 4 4 4 5 6 9 11 9 7 6 7 6 6 6 6 6 6 6 7 6 6 7 7 7 7 8 8 8 8 9 9 9 8 9 9 9 9 9 9
5 5 4 4 3 3 2 1 1 1 1 1 2 2 3 3 3 4 4 4 4 5 5 6 6 8 7 6 5 6 7 6 7 7 8 9 12 11 10 8 2 1 3 3 3 3 4 4 5 4 5 7 7 11 12 7 5 6 6 6 6 6 6 5 5 6 6 6 7 7 7 7 7 7 8 8 8 8 8 9 9 9 9 9 9 9 9
5 5 5 4 3 2 2 1 1 0 0 0 1 1 1 2 3 4 4 5 5 6 6 6 6 6 6 5 5 6 6 6 6 6 6 7 6 6 11 10 7 5 3 4 3 4 4 4 4 5 8 11 12 12 7 5 5 6 5 5 6 6 5 6 6 6 6 6 6 6 7 8 7 7 7 7 8 8 8 8 7 8 8 8 8 8 8
5 5 5 5 4 3 2 1 1 0 0 1 2 3 3 5 5 5 5 5 6 6 5 6 7 7 6 6 7 8 8 7 6 6 5 6 5 7 1 5 5 2 4 5 4 4 4 4 5 8 9 11 11 11 5 4 5 5 5 6 5 6 5 5 5 5 6 6 5 6 7 6 6 6 6 7 7 7 7 8 8 8 8 8 8 8 8
6 4 4 5 2 2 1 1 1 2 1 2 4 5 3 3 4 4 4 5 5 7 7 7 6 7 8 7 7 7 6 7 8 7 7 6 6 5 2 3 2 3 5 5 4 4 4 6 8 8 9 10 10 6 4 4 5 5 5 5 5 6 5 5 5 5 5 5 6 6 6 6 6 6 6 6 6 6 7 8 8 7 7 7 7 7 7
6 4 4 4 2 1 1 1 1 1 0 1 2 5 4 1 2 4 4 6 6 7 6 7 8 9 8 7 7 6 5 6 6 7 7 6 7 8 6 5 3 4 4 4 3 4 4 5 5 7 9 9 9 5 4 4 4 4 5 4 5 4 5 4 4 5 5 5 7 7 6 6 5 6 7 6 6 6 6 7 7 7 7 8 7 9 9
5 4 3 3 3 2 2 1 1 1 1 4 3 4 5 4 5 5 5 5 6 6 6 6 7 8 8 8 8 8 7 6 6 7 3 4 3 3 2 3 3 4 5 5 6 5 7 8 8 8 8 7 5 3 3 4 4 4 5 4 4 5 5 6 5 5 5 5 5 6 6 6 6 6 6 6 6 6 6 6 6 7 7 7 7 7 7
3 4 4 5 2 5 3 1 1 1 3 4 3 4 4 4 5 5 6 7 8 6 6 7 8 9 7 9 7 7 7 7 7 6 0 2 1 1 2 3 4 5 4 3 4 4 5 8 8 8 7 5 3 4 4 5 4 5 6 5 4 5 4 5 5 5 5 5 5 5 5 5 5 6 6 6 6 6 7 6 6 5 6 7 7 8 7
3 3 1 2 3 3 3 2 3 5 3 2 2 4 3 2 3 6 5 6 6 6 5 5 6 6 6 5 6 6 6 5 6 5 4 3 2 3 3 3 3 4 4 4 3 5 4 7 7 6 5 3 3 3 4 5 5 5 4 6 4 4 4 6 5 5 4 5 4 4 5 5 5 6 7 5 5 5 5 5 5 7 10 8 7 6 7
4 4 3 3 2 2 5 5 5 2 2 3 3 4 3 3 5 6 4 5 3 4 4 4 4 5 3 3 3 3 3 3 3 3 2 2 2 3 3 3 3 3 3 4 4 4 4 3 4 4 4 3 3 3 4 4 4 5 5 4 5 5 5 6 6 5 4 4 4 5 5 5 5 5 5 5 5 5 6 7 6 6 6 5 6 5 6
3 2 1 1 1 2 2 4 4 3 3 3 3 4 5 5 4 4 4 6 3 2 3 3 4 3 1 2 1 2 3 2 3 2 3 4 2 3 2 3 4 4 4 3 4 3 4 4 5 4 4 4 4 5 5 5 5 4 4 6 4 5 6 6 6 5 4 4 4 5 5 5 5 5 5 5 5 5 5 5 6 6 6 5 5 5 5
Wind_Direction
267 271 274 283 295 288 281 277 279 277 274 268 256 254 255 246 239 265 280 284 279 280 278 288 291 298 294 294 259 128 121 120 124 133 161 198 220 229 219 222 230 225 227 235 244 256 262 264 272 269 266 271 275 276 269 270 279 290 281 4 332 331 331 325 314 309 308 306 300 304 306 311 311 310 307 302 299 296 292 292 292 290 288 288 294 296 294
259 258 261 275 279 284 281 273 267 266 265 262 265 276 266 249 258 267 272 272 275 282 285 289 297 316 49 72 76 100 108 149 145 173 196 220 232 226 216 225 228 227 227 229 234 238 244 243 248 254 256 258 252 245 257 265 272 270 270 295 320 321 314 302 298 299 298 298 298 296 299 298 294 295 299 302 302 300 295 286 279 282 288 288 285 289 294
274 272 272 279 270 267 269 268 266 260 260 269 274 272 270 285 277 270 274 276 274 270 278 295 94 61 80 87 107 99 160 140 139 169 222 241 239 243 240 233 232 228 233 244 251 254 246 244 243 242 243 244 246 250 258 263 263 264 251 270 287 283 283 279 284 287 292 290 292 293 289 291 290 291 292 292 294 296 298 297 293 288 281 281 284 285 286
280 277 276 268 253 259 259 265 258 254 257 268 256 257 258 257 263 271 274 266 267 285 88 84 122 107 102 81 78 96 69 97 99 270 271 287 300 317 310 297 265 244 243 244 248 250 252 249 249 251 253 253 255 259 266 273 265 285 326 303 295 286 280 284 282 285 283 284 285 283 285 284 285 285 284 284 285 288 293 297 298 297 290 283 281 281 281
260 270 286 286 264 284 275 248 248 258 258 251 261 259 254 250 261 266 263 262 260 203 158 111 223 94 342 75 38 63 350 315 161 235 250 257 275 271 266 273 281 266 244 237 234 242 255 251 246 247 241 255 272 272 302 292 343 0 337 321 310 303 297 293 290 287 285 283 282 281 280 280 281 283 281 278 280 284 285 289 299 298 296 296 292 288 281
255 271 37 76 186 234 243 275 209 224 244 248 253 251 248 246 227 240 235 238 147 189 233 153 115 105 308 112 267 218 192 232 256 251 245 245 251 299 336 343 339 325 314 292 256 237 247 288 339 356 14 20 354 359 7 8 6 341 338 325 313 303 299 295 293 292 290 289 286 284 284 283 281 279 278 276 277 278 282 290 289 290 292 292 292 292 291
230 212 126 251 228 247 268 129 225 253 257 253 250 265 266 267 272 274 277 265 192 162 130 119 108 96 267 301 249 277 245 201 219 225 222 226 98 16 341 341 323 318 318 335 355 10 23 26 22 21 8 16 8 358 358 352 340 331 321 306 302 301 298 297 297 296 294 293 294 294 294 292 289 284 282 283 280 279 282 283 287 287 289 290 288 289 290
281 247 232 250 246 256 219 254 177 64 102 197 240 274 258 256 251 250 255 258 211 129 130 136 156 190 250 260 264 251 255 230 217 213 194 158 87 17 272 278 283 316 10 55 62 37 7 30 12 13 7 2 7 331 333 326 317 314 308 303 298 298 297 299 302 304 305 304 302 302 301 298 295 293 295 293 291 290 286 284 281 283 282 279 280 281 283
237 227 238 245 297 301 266 278 252 193 206 208 191 226 272 193 216 239 129 32 93 124 115 103 286 289 347 339 294 267 241 250 218 155 141 153 221 215 247 238 307 68 92 79 60 53 36 31 7 6 10 9 351 334 327 319 324 315 311 304 302 301 300 303 307 311 314 313 310 306 303 300 300 301 302 300 298 299 293 289 286 283 280 279 278 277 279
223 234 261 273 272 261 269 228 298 347 68 98 281 110 272 277 271 268 191 167 132 116 108 127 273 334 46 322 294 311 63 109 104 193 187 205 197 219 248 41 72 58 50 58 36 44 24 10 23 27 14 8 348 330 324 323 322 315 312 305 306 306 305 312 313 316 316 313 308 306 308 306 306 306 306 304 302 304 298 295 289 285 283 280 274 272 273
257 254 247 241 251 259 149 190 90 30 99 69 29 30 279 292 305 179 124 125 127 119 179 243 217 105 261 258 256 244 120 176 162 159 249 210 249 56 94 106 76 54 47 55 43 39 27 33 25 18 7 357 346 328 322 322 319 314 311 310 314 314 314 315 317 320 318 314 309 310 313 316 318 314 310 306 302 300 294 290 287 288 285 281 278 274 270
228 240 241 249 235 237 262 199 242 235 214 41 51 300 292 165 233 173 135 146 154 197 194 197 170 173 206 250 251 254 328 282 230 199 248 299 41 84 105 87 84 58 57 46 33 30 37 32 10 7 0 352 336 325 320 321 317 312 311 315 316 314 317 321 322 319 315 313 316 321 318 313 310 304 303 302 299 298 295 292 289 286 284 281 280 279 277
231 231 247 264 261 257 179 192 192 188 146 84 239 261 263 216 218 223 154 178 164 176 191 208 187 227 204 212 235 277 300 312 306 293 265 95 121 109 82 50 50 53 50 54 42 44 37 18 6 357 356 345 328 323 318 317 310 310 315 318 317 319 319 318 318 317 315 317 316 312 308 304 302 299 300 299 300 298 296 294 292 289 289 289 285 283 280
224 222 238 238 269 229 197 247 158 156 69 258 224 236 174 164 214 236 178 182 216 181 210 214 220 230 236 259 284 284 273 251 244 255 101 100 78 83 77 62 59 54 42 45 35 26 27 11 1 357 346 334 321 320 319 310 309 318 319 319 320 318 316 314 311 308 307 306 303 299 299 298 296 293 295 295 293 295 293 293 293 291 290 289 286 283 282
214 205 238 247 244 333 112 120 38 229 153 232 188 182 224 188 195 203 221 195 230 201 231 226 222 237 256 244 252 253 260 264 267 108 106 90 85 53 43 48 48 47 35 28 12 359 4 359 1 350 344 323 316 315 308 307 319 322 320 319 316 314 311 308 306 304 302 301 299 297 293 292 291 292 294 292 289 288 288 288 288 287 286 285 282 283 282
189 206 221 215 209 206 184 146 191 219 197 207 211 150 210 218 187 199 207 225 219 217 213 224 236 232 235 264 252 266 271 265 120 122 119 108 95 83 77 88 64 49 33 13 344 345 345 356 352 346 333 315 311 307 301 315 322 319 316 314 313 310 308 305 305 304 302 301 297 294 293 293 289 289 289 288 286 285 286 285 286 286 284 285 284 284 285
181 193 226 204 135 171 196 177 206 208 238 235 219 202 198 186 222 205 204 231 237 210 202 213 219 246 238 230 232 238 253 211 140 114 108 89 88 86 85 77 63 51 29 348 333 327 339 341 338 324 323 309 305 301 304 321 316 316 314 314 312 309 307 306 305 304 301 299 297 295 293 291 291 290 287 287 287 285 283 284 281 281 282 280 279 282 283
253 260 249 271 290 266 204 207 194 210 237 246 239 219 236 228 224 216 227 221 213 216 195 203 243 230 242 252 260 251 170 130 133 108 82 76 82 84 75 61 44 36 7 352 339 322 322 329 315 314 304 301 299 299 310 313 312 312 312 312 309 306 305 305 304 303 302 301 297 297 294 289 284 283 285 288 286 287 283 280 279 281 283 283 281 282 281
270 248 197 215 235 251 238 234 234 229 227 238 233 230 227 232 226 225 215 203 210 206 194 192 211 232 234 247 256 213 153 144 127 106 107 93 93 84 75 58 36 8 359 336 326 317 308 314 311 308 302 295 289 300 308 309 311 311 311 308 305 305 305 305 304 303 304 305 302 298 293 291 285 285 285 283 284 284 282 282 281 280 281 280 281 280 278
229 252 231 247 242 242 243 234 238 245 246 243 238 229 222 221 220 212 217 200 207 172 193 202 209 228 230 232 235 200 156 143 119 111 104 98 79 80 86 52 49 12 341 317 307 305 301 306 311 305 302 298 297 301 303 307 309 309 306 306 305 305 304 305 304 305 302 297 297 297 295 294 294 291 285 282 282 280 281 281 282 280 277 277 277 275 276
244 264 236 239 256 257 255 253 243 233 238 241 243 244 237 225 222 216 201 175 188 178 210 197 202 216 222 194 178 173 169 149 130 99 101 93 95 71 22 10 30 334 310 302 291 296 295 303 304 302 296 297 300 303 305 308 308 307 305 304 300 299 302 304 300 298 295 296 295 296 295 293 285 283 288 286 280 274 265 260 262 268 271 271 267 266 264
252 236 236 210 250 256 253 243 238 243 243 244 248 250 251 242 235 186 177 197 178 179 181 180 180 203 204 181 157 180 174 166 116 93 84 77 51 24 25 12 326 309 299 293 301 297 296 302 301 300 301 302 303 301 303 303 305 305 304 303 301 302 303 300 297 297 297 295 296 295 294 293 293 284 273 285 288 288 288 284 285 286 287 287 286 286 285
248 245 243 219 233 246 241 249 251 231 220 213 221 225 226 229 218 182 177 181 184 193 203 168 175 186 178 173 136 149 149 134 108 101 101 46 354 330 338 325 309 296 298 304 295 293 294 305 302 303 302 302 304 304 302 303 304 301 300 303 303 301 301 297 297 298 298 298 295 293 292 293 291 293 294 283 284 288 287 290 291 291 292 291 292 293 293
259 252 241 219 222 243 248 245 244 246 226 211 222 228 227 218 198 184 185 185 188 202 181 168 162 169 151 140 135 163 146 125 97 78 65 54 13 317 302 289 298 306 301 294 287 291 303 305 300 298 297 296 298 299 299 299 300 296 300 304 301 299 298 296 298 297 295 295 295 294 294 293 292 294 293 295 290 283 289 293 294 295 295 294 293 294 294
251 250 253 248 251 256 255 256 254 253 245 224 222 218 207 178 173 165 172 178 174 169 172 171 150 134 143 136 135 150 165 122 88 62 23 328 293 294 283 297 294 291 289 287 293 298 300 297 294 294 294 293 295 295 298 301 300 301 303 301 295 294 294 295 295 295 297 296 294 294 295 295 295 293 294 297 297 301 291 292 295 297 296 295 296 296 296
249 255 255 252 251 257 263 268 264 247 226 191 176 143 151 160 161 147 155 154 148 140 150 154 145 124 136 142 128 114 102 143 229 55 336 286 284 283 282 279 282 285 290 293 294 297 294 290 291 293 292 292 296 297 302 302 301 300 301 295 290 289 292 292 294 294 294 293 293 292 290 290 290 292 291 292 294 295 302 304 299 292 292 295 297 298 298
243 242 253 265 263 260 252 246 254 230 207 199 187 169 137 102 104 101 82 79 95 109 122 124 124 119 95 98 105 117 157 176 73 308 267 265 265 266 273 285 292 288 288 290 292 290 291 292 292 292 289 291 297 302 303 301 301 303 301 297 292 289 288 289 287 290 291 291 292 290 292 291 291 291 290 291 291 294 296 299 301 303 306 301 299 300 299
246 242 223 239 248 250 253 251 251 201 161 168 153 138 130 106 102 110 116 118 114 98 92 104 121 126 129 145 141 170 161 180 223 246 251 257 264 275 286 286 281 283 288 292 292 289 285 285 285 287 288 294 303 303 301 300 304 306 303 297 293 289 291 290 290 289 291 292 291 292 292 290 288 286 288 288 291 290 290 290 292 295 295 295 295 298 301
252 249 240 235 246 258 277 91 101 122 106 74 92 106 121 126 146 158 181 177 162 143 150 132 113 134 148 156 140 170 179 202 226 237 246 256 261 272 280 286 287 290 291 291 286 280 279 278 289 293 292 298 302 302 302 306 308 308 302 297 295 293 292 293 293 293 294 291 289 290 291 291 291 292 290 290 288 288 289 290 292 291 293 296 302 300 304
250 256 263 256 108 129 145 174 163 154 145 146 135 143 157 147 166 202 191 182 168 176 178 150 150 165 155 169 176 178 198 217 226 240 253 261 280 291 289 286 292 286 284 271 265 271 286 294 294 290 291 302 305 304 307 309 306 304 297 293 290 289 287 290 294 298 298 296 296 299 299 295 294 293 293 293 292 291 292 293 293 295 298 299 300 300 302
247 51 87 93 123 144 178 200 180 176 161 165 158 149 170 182 189 185 194 180 165 175 163 164 165 163 165 180 185 184 183 214 247 260 261 264 266 263 261 253 259 280 279 281 286 287 288 290 287 285 289 297 300 308 312 307 308 307 301 298 295 295 297 301 304 302 297 300 300 302 299 299 298 298 298 298 297 296 295 294 296 295 295 297 297 299 299
146 71 67 67 106 230 250 213 178 183 182 165 157 189 188 179 194 199 183 181 188 170 153 152 168 185 189 177 168 188 211 230 239 245 252 257 257 253 246 243 244 257 262 270 278 285 288 288 286 284 292 294 305 311 305 304 309 306 302 303 301 303 301 308 309 306 303 300 302 300 300 303 304 305 303 304 304 304 302 302 301 301 301 301 302 300 304
163 212 285 242 275 272 249 234 198 208 178 188 204 191 178 192 184 182 180 158 138 151 164 186 182 175 172 167 173 201 225 240 248 252 257 257 252 245 236 237 243 253 264 266 273 279 280 278 278 287 294 304 306 300 297 299 304 301 301 301 297 297 300 306 307 308 303 301 301 302 306 307 306 308 309 309 310 310 311 310 310 310 309 307 307 306 305
198 220 236 208 188 206 219 231 209 210 199 178 160 157 154 156 157 148 137 134 144 161 182 183 168 161 154 176 197 217 222 246 260 250 242 245 254 270 267 266 263 263 266 276 279 276 270 267 275 288 299 302 297 296 296 300 299 299 298 297 297 299 302 302 307 305 303 305 306 309 310 310 312 313 312 313 314 315 316 317 318 317 316 319 318 320 326
96 75 85 80 42 38 39 188 187 193 178 173 162 160 146 132 133 140 132 144 174 187 160 147 165 167 180 197 213 221 222 234 250 262 263 268 269 274 281 281 281 287 288 281 270 266 262 266 278 291 295 296 298 299 299 302 304 302 301 296 296 296 296 300 303 303 305 306 310 312 317 318 316 318 317 317 317 318 316 318 319 321 325 324 326 328 329
92 98 73 67 50 47 52 32 16 157 171 173 166 152 143 138 130 136 155 170 165 177 186 184 183 184 198 207 221 225 235 244 250 253 260 266 273 276 277 282 292 293 293 294 280 253 255 273 292 302 305 305 306 304 303 306 309 309 302 303 300 297 297 298 299 296 298 304 312 316 315 318 320 321 323 322 319 319 321 322 324 329 326 330 331 331 331
70 107 103 90 79 78 65 57 48 71 91 109 120 124 128 137 153 160 134 155 166 188 187 160 178 204 225 229 234 238 241 245 251 255 265 276 294 305 294 284 273 272 279 287 278 220 313 307 307 310 308 303 300 301 306 317 317 313 309 303 296 297 302 304 303 304 308 313 315 316 316 319 321 322 326 328 324 326 327 328 333 332 332 332 333 331 333
84 98 108 111 110 95 82 77 74 87 92 82 71 102 135 141 140 155 164 177 192 201 196 215 218 229 235 243 240 242 250 253 256 264 273 277 277 275 272 262 267 255 256 247 263 332 314 308 309 306 300 301 297 300 305 317 322 318 307 301 296 298 302 304 308 311 316 319 323 320 320 323 323 327 329 328 330 332 335 335 335 334 334 334 334 337 337
102 93 95 105 101 106 115 86 70 79 107 128 135 117 128 142 153 160 192 221 227 213 222 239 244 246 243 240 249 252 254 253 253 255 261 263 260 251 254 252 251 243 245 266 296 294 299 299 293 297 301 296 300 298 308 319 324 317 305 297 299 296 301 302 308 312 317 322 323 325 328 327 328 329 330 332 333 334 337 340 339 337 338 338 341 344 345
128 133 138 132 122 128 125 128 122 131 147 146 141 165 178 158 178 177 216 231 233 202 217 222 225 233 240 239 246 252 254 254 249 248 250 255 263 271 278 272 259 255 249 249 250 265 280 290 294 288 290 293 296 300 308 319 322 313 305 299 299 303 302 304 308 317 323 327 325 328 327 328 330 330 331 335 334 337 340 340 343 344 345 345 349 349 349
136 137 136 127 134 136 133 138 149 163 159 162 168 169 169 170 182 192 220 227 235 218 222 217 227 241 238 243 245 253 261 266 258 251 252 265 271 262 263 276 269 252 202 162 226 256 286 293 282 287 288 296 291 310 314 320 318 306 300 298 304 308 310 315 322 329 330 329 329 330 328 330 330 333 336 337 337 337 338 341 341 344 347 349 350 350 354
127 122 121 120 123 127 125 115 124 125 163 171 188 181 189 181 194 216 227 224 232 229 225 232 226 235 240 244 251 258 260 262 262 260 241 231 238 245 252 265 259 198 199 290 304 297 283 286 280 285 287 296 295 309 317 317 309 301 297 297 304 308 312 318 326 329 328 325 322 323 328 328 330 332 333 336 338 342 341 341 344 348 353 351 352 352 352
100 102 103 98 97 97 103 131 133 162 145 157 179 197 202 204 212 228 233 235 234 241 244 244 246 253 254 254 252 259 260 264 264 263 263 249 231 223 227 250 254 268 318 321 297 284 282 281 288 282 290 300 305 313 318 311 300 296 295 302 312 316 318 322 326 328 330 331 335 337 333 332 335 334 334 336 337 338 341 344 345 349 349 352 351 354 357
106 102 108 109 111 125 143 149 142 86 82 263 119 142 187 225 217 218 231 236 242 241 240 248 251 250 247 241 238 249 255 250 252 248 243 268 278 247 225 237 243 252 273 281 274 273 277 280 278 290 300 310 313 316 314 302 295 294 299 308 317 317 322 329 332 335 334 334 335 332 328 334 336 334 335 336 337 341 343 343 343 346 347 347 350 351 355
124 126 125 122 121 111 122 170 157 191 51 19 331 297 259 243 246 232 225 232 241 247 246 249 248 249 246 234 230 232 234 236 237 247 252 272 283 287 248 197 210 201 248 270 268 272 273 275 283 302 308 310 311 315 306 295 293 296 305 312 313 315 321 327 328 330 329 330 327 325 328 331 329 331 329 331 336 341 342 343 343 343 342 347 348 352 352
126 122 124 123 125 154 191 83 61 69 17 340 321 295 265 233 240 240 219 221 233 240 236 237 237 239 236 236 241 243 245 247 249 245 241 224 228 236 181 169 229 235 270 280 269 266 267 276 292 297 302 310 314 312 298 294 293 300 305 307 308 314 318 321 324 324 327 326 322 325 328 327 332 333 330 332 335 336 337 342 341 342 344 344 348 347 344
122 118 117 129 148 135 90 84 87 87 57 11 323 294 301 288 234 238 245 229 224 242 244 241 241 244 239 230 228 238 251 256 262 242 233 238 238 241 262 277 286 278 274 263 262 268 274 283 282 288 297 305 316 306 299 302 302 303 301 299 302 307 310 314 319 317 319 315 320 322 323 326 329 327 330 334 338 341 343 342 343 341 340 342 343 347 348
126 139 155 165 183 170 126 111 108 175 211 232 235 260 277 289 286 271 259 252 244 243 247 247 243 246 242 239 234 230 228 235 263 281 253 209 194 189 211 212 238 248 272 280 282 280 289 289 290 291 296 306 308 306 311 306 302 300 296 296 305 311 314 316 320 321 317 316 323 326 329 332 332 332 331 332 333 334 335 339 337 337 340 343 340 340 341
140 157 174 157 154 152 159 171 185 235 257 242 226 252 253 259 271 285 291 275 261 252 248 250 247 248 246 234 228 227 228 225 221 242 209 118 222 217 255 254 271 270 271 262 279 286 285 286 287 289 293 300 310 313 301 293 291 296 296 299 303 305 307 305 298 298 303 309 312 314 313 314 319 324 324 328 329 328 333 335 336 337 338 337 336 339 341
158 122 137 165 165 170 181 185 220 225 239 231 236 257 276 294 310 293 272 269 260 250 246 241 238 233 227 229 224 217 216 215 221 232 259 277 253 252 245 237 243 258 264 269 272 275 278 281 286 285 287 304 315 305 291 289 291 297 298 301 302 301 297 296 299 301 304 308 311 312 312 309 311 316 318 319 321 324 326 325 325 329 336 339 337 336 337
165 177 183 165 180 194 193 191 217 233 267 265 263 278 276 266 253 262 269 282 290 304 297 299 303 275 231 202 179 184 177 179 194 229 237 243 243 245 246 257 260 259 264 263 257 265 273 274 269 275 291 296 291 283 281 287 293 294 298 300 297 297 299 301 302 299 299 302 305 304 302 306 308 311 312 315 319 321 322 326 326 328 329 329 330 327 326
166 164 160 170 186 243 231 240 236 229 230 250 258 259 260 265 279 296 299 307 312 291 307 316 308 316 84 118 148 187 164 184 202 219 229 229 237 247 256 260 263 256 250 242 262 271 272 271 277 288 292 288 278 272 275 279 281 287 289 288 290 289 288 288 292 293 293 297 299 298 299 299 303 305 306 308 311 314 317 317 315 314 314 315 316 318 317